Date,TemperatureHighF,TemperatureAvgF,TemperatureLowF,DewpointHighF,DewpointAvgF,DewpointLowF,HumidityHigh,HumidityAvg,HumidityLow,PressureMaxIn,PressureMinIn,WindSpeedMaxMPH,WindSpeedAvgMPH,GustSpeedMaxMPH,PrecipitationSumIn
2013-1-1,15.7,1.3,-14.8,11.2,-5.1,-22.0,82,74,64,30.35,30.08,12,4,13,0.00
2013-1-2,18.4,15.3,13.3,14.8,11.3,7.4,89,84,79,30.11,30.00,17,8,17,0.00
2013-1-3,19.2,14.6,8.6,16.0,8.5,1.1,88,77,60,30.27,30.00,24,8,24,0.00
2013-1-4,30.9,18.0,9.0,17.6,11.3,5.1,86,75,55,30.11,29.96,20,5,24,0.00
2013-1-5,23.0,15.0,4.1,15.5,9.5,-0.4,88,79,66,30.08,29.82,19,4,20,0.00
2013-1-6,21.4,15.7,9.7,15.7,8.7,4.9,88,74,55,30.18,29.95,25,6,28,0.00
2013-1-7,36.3,26.8,15.6,24.5,19.5,9.8,87,74,60,29.98,29.82,33,12,33,0.00
2013-1-8,32.9,18.1,10.9,27.9,15.1,7.5,91,88,81,29.94,29.71,21,6,21,0.02
2013-1-9,33.1,27.1,23.3,20.5,18.1,16.3,78,69,58,30.30,30.17,20,8,23,0.00
2013-1-10,38.3,32.8,24.8,31.9,23.5,17.9,94,69,48,30.27,29.69,24,13,28,0.29
2013-1-11,34.4,33.9,33.4,34.0,32.9,31.9,100,96,94,29.69,29.50,21,12,22,0.00
2013-1-12,17.2,11.7,5.2,10.1,2.9,-1.5,74,67,61,30.05,29.64,31,10,33,0.01
2013-1-13,7.9,5.2,1.7,0.8,-1.4,-3.7,78,74,68,30.17,30.01,13,4,13,0.00
2013-1-14,9.9,8.3,6.0,2.7,1.1,-1.1,75,72,70,30.38,30.27,16,6,16,0.00
2013-1-15,26.1,17.2,7.2,15.5,9.3,2.6,83,71,52,30.27,29.75,21,11,24,0.00
2013-1-16,32.9,23.5,8.6,27.5,13.6,-5.8,90,67,45,30.22,29.57,27,10,29,0.01
2013-1-17,15.1,8.9,2.8,4.4,-1.5,-7.1,79,62,51,30.38,30.21,16,3,16,0.00
2013-1-18,37.2,23.2,10.7,28.0,17.9,4.2,92,80,67,30.29,29.66,24,7,25,0.03
2013-1-19,36.0,20.1,1.5,28.0,13.4,-7.5,93,76,51,30.16,29.62,36,9,43,0.01
2013-1-20,5.2,-0.4,-5.9,-5.0,-9.7,-15.1,72,64,52,30.40,30.15,19,7,20,0.00
2013-1-21,-4.8,-9.2,-13.5,-15.1,-20.5,-24.0,67,57,46,30.35,30.26,19,7,21,0.00
2013-1-22,-0.2,-8.9,-19.3,-10.6,-18.5,-26.9,70,62,49,30.43,30.27,11,4,13,0.00
2013-1-23,13.1,2.1,-10.7,2.7,-8.7,-21.4,77,60,42,30.64,30.16,32,7,33,0.00
2013-1-24,8.8,-2.4,-12.5,-0.7,-12.9,-22.1,65,60,55,30.71,30.17,20,5,23,0.00
2013-1-25,17.8,11.9,1.3,10.8,3.2,-5.8,79,68,53,30.29,29.89,26,10,26,0.00
2013-1-26,21.1,8.3,-7.5,10.5,-0.8,-14.0,78,66,53,30.36,30.13,23,5,23,0.00
2013-1-27,32.4,27.5,21.0,27.2,19.9,10.0,93,74,58,30.12,29.76,21,8,26,0.26
2013-1-28,32.8,29.3,24.8,30.2,27.4,23.1,94,92,89,29.86,29.58,17,3,19,0.00
2013-1-29,35.2,31.3,25.8,32.0,27.8,18.3,96,87,71,29.69,29.46,20,4,21,0.01
2013-1-30,25.7,15.8,8.8,18.3,8.3,0.6,83,72,62,29.70,29.60,26,10,26,0.00
2013-1-31,8.6,1.6,-9.6,1.1,-7.9,-20.2,77,64,53,30.27,29.70,24,10,26,0.00
2013-2-1,-0.4,-7.4,-18.4,-6.4,-16.9,-26.0,75,63,47,30.33,30.10,11,4,14,0.01
2013-2-2,7.2,2.2,-8.9,1.4,-5.5,-14.4,79,70,56,30.20,29.97,10,2,11,0.00
2013-2-3,15.1,8.8,1.8,2.2,-0.5,-4.3,80,66,48,30.06,29.96,18,4,21,0.00
2013-2-4,12.4,6.9,-4.3,6.5,-4.6,-12.2,80,59,44,30.08,29.72,20,3,22,0.00
2013-2-5,24.5,17.5,1.5,19.2,10.1,-4.0,85,73,51,30.05,29.60,21,5,21,0.00
2013-2-6,23.3,13.4,-2.4,19.5,8.6,-7.8,85,81,76,30.09,29.94,12,3,15,0.00
2013-2-7,27.6,24.3,22.1,20.4,19.3,16.8,90,81,71,30.23,30.00,19,6,19,0.00
2013-2-8,25.6,17.0,2.6,17.4,9.2,-1.9,87,72,57,30.37,30.21,17,4,21,0.00
2013-2-9,29.5,26.1,18.4,26.2,22.0,12.1,92,84,76,30.21,29.91,25,13,25,0.00
2013-2-10,32.4,29.0,25.7,30.9,26.5,22.0,96,90,82,29.91,29.24,20,6,21,0.55
2013-2-11,30.6,25.0,18.1,29.6,20.6,12.3,96,83,72,29.97,29.25,24,8,24,0.00
2013-2-12,34.3,20.3,6.1,21.9,14.2,2.3,86,77,58,29.98,29.73,18,8,19,0.00
2013-2-13,35.2,27.2,18.4,29.0,22.1,14.6,94,81,67,29.74,29.54,13,4,13,0.08
2013-2-14,32.4,23.4,8.4,28.6,15.1,-1.3,94,72,37,30.12,29.56,22,5,27,0.01
2013-2-15,17.7,9.3,1.1,1.2,-1.3,-5.4,77,62,45,30.28,30.12,18,4,18,0.00
2013-2-16,17.0,5.0,-5.0,2.6,-3.5,-11.1,80,68,50,30.24,30.12,10,2,11,0.00
2013-2-17,27.0,15.6,-7.7,16.5,6.7,-14.0,80,67,61,30.13,29.61,31,14,32,0.00
2013-2-18,32.7,24.3,10.0,26.8,16.9,0.9,83,73,66,29.73,29.45,29,12,29,0.00
2013-2-19,10.2,3.7,-4.6,0.8,-7.6,-12.6,70,59,45,30.35,29.73,28,11,30,0.00
2013-2-20,17.7,3.9,-9.6,1.7,-6.0,-15.9,74,64,46,30.48,30.35,10,3,12,0.00
2013-2-21,24.1,11.4,-6.5,14.7,2.1,-12.4,80,67,48,30.49,30.09,14,4,17,0.00
2013-2-22,29.7,23.2,18.0,23.0,18.7,13.7,89,83,72,30.09,29.81,16,3,19,0.19
2013-2-23,34.6,25.8,16.9,24.9,20.3,14.2,92,80,60,29.90,29.78,10,1,12,0.02
2013-2-24,35.9,23.4,12.3,22.5,16.9,9.2,89,77,55,30.06,29.89,7,2,9,0.00
2013-2-25,35.3,22.7,11.9,23.7,16.6,8.6,90,78,59,30.08,30.01,7,1,8,0.00
2013-2-26,39.6,23.8,6.1,26.5,17.1,1.5,88,76,54,30.04,29.84,23,5,27,0.00
2013-2-27,36.9,30.1,24.1,25.1,22.7,18.9,82,74,58,29.97,29.82,27,9,27,0.00
2013-2-28,29.5,26.8,21.1,21.4,18.0,12.9,81,69,61,30.20,29.97,18,6,19,0.00
2013-3-1,30.9,23.0,9.9,16.4,12.9,4.7,81,65,47,30.33,30.20,18,4,20,0.00
2013-3-2,30.6,14.2,-4.8,13.1,4.8,-10.7,86,67,45,30.35,30.14,10,1,11,0.00
2013-3-3,31.6,19.1,3.2,8.4,2.0,-4.2,81,51,28,30.14,29.98,16,5,17,0.00
2013-3-4,27.0,24.3,20.2,20.9,12.3,-3.2,88,62,34,30.03,29.95,27,6,27,0.00
2013-3-5,28.7,23.7,15.4,23.9,20.3,12.0,90,86,80,30.27,29.97,15,4,18,0.59
2013-3-6,30.6,17.4,4.3,17.2,11.2,-0.1,88,77,53,30.40,30.26,18,2,21,0.00
2013-3-7,32.2,14.1,-6.5,18.3,5.1,-12.3,83,68,50,30.40,30.27,13,3,15,0.00
2013-3-8,36.9,30.7,19.4,27.6,23.2,12.9,82,74,65,30.28,30.04,19,9,19,0.00
2013-3-9,35.3,34.0,32.4,33.9,31.5,25.9,97,91,70,30.04,29.65,23,8,23,0.24
2013-3-10,34.1,31.8,28.4,32.6,27.5,21.8,99,84,75,29.92,29.73,24,10,25,0.00
2013-3-11,31.3,26.7,23.3,22.5,20.4,17.1,82,77,60,29.83,29.68,19,6,20,0.00
2013-3-12,30.7,23.0,17.3,19.2,13.3,7.5,84,67,39,30.13,29.76,26,7,32,0.00
2013-3-13,35.9,21.1,8.4,13.1,8.9,4.8,85,61,32,30.33,30.13,15,3,16,0.00
2013-3-14,39.5,28.4,21.1,26.9,21.5,11.9,88,76,58,30.22,29.97,15,6,18,0.03
2013-3-15,34.6,28.6,19.7,30.0,23.4,15.9,93,81,56,29.97,29.83,17,4,18,0.24
2013-3-16,27.8,18.7,9.2,15.9,9.2,-1.3,86,67,43,30.21,29.89,17,6,21,0.00
2013-3-17,24.1,8.4,-5.0,7.3,-2.3,-11.3,76,62,44,30.26,30.04,25,6,25,0.00
2013-3-18,26.6,20.3,12.4,24.3,14.1,3.5,91,77,66,29.72,29.54,27,13,29,0.04
2013-3-19,25.7,13.6,5.6,5.6,0.5,-7.8,72,56,40,30.13,29.72,25,10,25,0.00
2013-3-20,24.5,11.8,1.8,4.8,-2.4,-9.1,66,53,39,30.16,30.07,26,8,27,0.00
2013-3-21,31.3,12.8,-7.0,10.2,1.3,-13.4,81,62,38,30.12,30.03,14,1,14,0.00
2013-3-22,38.9,19.1,-3.1,16.9,6.9,-9.0,82,61,35,30.07,29.99,10,1,11,0.00
2013-3-23,41.5,28.2,14.8,22.8,15.8,8.6,78,61,43,30.13,30.02,9,1,10,0.00
2013-3-24,33.1,28.9,24.5,23.0,19.3,16.8,73,67,58,30.04,29.95,20,6,20,0.00
2013-3-25,40.8,28.0,13.8,21.6,16.3,10.1,86,63,39,30.15,30.00,23,4,24,0.00
2013-3-26,40.8,34.0,28.2,23.4,19.6,13.1,70,56,33,30.23,30.14,12,2,14,0.00
2013-3-27,46.2,34.7,26.3,23.2,19.1,13.6,73,55,29,30.28,30.23,12,1,13,0.00
2013-3-28,46.2,31.4,15.4,22.4,17.5,11.4,85,59,32,30.31,30.23,11,3,12,0.00
2013-3-29,44.9,34.8,21.9,34.1,24.9,16.3,86,68,53,30.24,30.01,24,9,24,0.07
2013-3-30,53.6,41.4,35.9,41.4,36.0,30.6,96,82,56,30.01,29.75,31,7,31,0.43
2013-3-31,38.6,33.4,24.4,31.1,21.8,10.8,88,65,37,30.01,29.69,35,9,35,0.00
2013-4-1,36.3,25.3,15.6,14.7,11.0,7.7,73,56,31,30.19,30.01,27,8,27,0.00
2013-4-2,38.8,26.3,14.0,16.1,11.9,8.7,82,57,34,30.31,30.19,20,4,22,0.00
2013-4-3,41.9,30.1,13.5,29.3,18.9,9.6,86,64,42,30.36,29.97,27,10,29,0.00
2013-4-4,48.8,40.5,28.2,32.1,26.0,18.0,77,57,35,30.11,29.89,26,9,27,0.00
2013-4-5,40.1,32.0,20.2,28.9,18.7,13.2,83,59,39,30.21,29.89,20,6,22,0.00
2013-4-6,47.0,36.9,33.7,36.5,30.6,24.5,96,79,51,29.89,29.49,29,9,30,0.22
2013-4-7,42.6,37.0,33.4,33.8,31.9,30.1,95,82,66,29.88,29.67,14,3,16,0.01
2013-4-9,43.9,36.9,32.8,34.0,27.8,20.1,93,71,49,30.14,29.95,24,8,27,0.00
2013-4-10,40.6,35.7,30.7,23.5,20.4,16.6,65,54,40,30.15,29.91,24,8,24,0.00
2013-4-11,36.0,32.6,28.1,30.6,24.5,10.8,94,74,39,29.92,29.68,54,8,54,0.26
2013-4-12,36.5,30.5,26.9,30.9,25.9,23.1,93,83,65,29.79,29.63,19,4,19,0.11
2013-4-13,40.5,30.7,23.6,24.8,21.0,15.4,90,69,40,29.93,29.76,15,2,15,0.01
2013-4-14,34.7,29.9,20.0,32.5,24.2,15.4,92,80,57,29.93,29.46,33,7,33,0.35
2013-4-15,41.1,35.5,31.8,33.5,28.1,24.1,92,74,61,29.88,29.45,31,15,34,0.00
2013-4-16,46.8,37.8,33.1,28.2,26.1,22.7,77,64,43,30.27,29.88,21,4,21,0.00
2013-4-17,33.8,32.7,32.2,30.9,30.6,30.1,94,92,86,29.99,29.89,15,5,18,0.06
2013-4-18,32.7,31.6,29.8,32.0,30.2,28.3,99,94,89,29.90,29.42,20,6,25,0.76
2013-4-19,40.2,32.9,22.9,31.8,25.3,16.3,90,74,52,29.93,29.52,34,9,38,0.04
2013-4-20,40.5,26.7,13.1,17.0,12.3,6.0,80,56,29,30.26,29.93,13,2,13,0.00
2013-4-21,41.6,36.1,30.3,40.8,29.9,12.8,97,79,47,30.26,29.95,34,13,34,0.11
2013-4-22,44.1,36.7,31.6,37.3,30.0,23.0,96,79,48,30.17,30.05,24,7,25,0.23
2013-4-23,43.9,35.3,28.1,32.0,24.9,12.4,96,69,32,30.09,29.99,20,7,22,0.07
2013-4-24,50.7,35.4,23.8,33.5,25.7,18.6,91,70,31,30.00,29.81,30,8,32,0.00
2013-4-25,51.7,39.7,28.2,29.5,26.6,19.2,94,64,30,30.12,29.89,20,7,21,0.00
2013-4-26,73.7,55.7,40.6,41.9,35.3,26.2,72,49,24,30.04,29.88,22,7,26,0.01
2013-4-27,76.1,56.7,31.8,47.5,35.8,28.2,88,52,21,30.05,29.77,20,6,23,0.00
2013-4-28,78.8,62.1,49.5,60.0,47.4,43.3,86,61,31,29.77,29.56,33,13,33,0.08
2013-4-29,77.0,59.8,40.6,54.5,41.8,32.0,86,56,22,29.73,29.46,20,5,21,0.00
2013-4-30,72.7,63.7,54.7,57.8,44.1,22.2,79,52,22,29.91,29.30,32,12,35,0.00
2013-5-1,54.7,40.6,33.4,38.7,33.1,26.9,94,76,47,30.49,29.91,18,3,18,0.25
2013-5-2,45.7,38.7,33.7,29.4,25.7,23.2,83,60,45,30.54,30.43,23,8,23,0.00
2013-5-3,36.3,32.6,30.3,30.6,27.9,23.3,92,83,60,30.43,30.18,20,7,24,0.08
2013-5-4,45.7,36.8,31.5,39.0,33.6,29.0,95,88,76,30.20,30.15,17,6,17,0.26
2013-5-5,68.3,48.7,35.9,46.0,39.1,33.0,91,72,45,30.19,30.05,13,4,15,0.00
2013-5-6,77.6,57.6,36.8,47.8,41.7,34.7,93,61,28,30.10,29.98,17,3,20,0.00
2013-5-7,81.4,62.3,42.6,51.0,41.6,36.7,90,53,21,30.03,29.92,21,5,22,0.00
2013-5-8,78.5,62.0,47.0,53.9,46.1,39.1,89,60,30,29.98,29.92,19,4,19,0.02
2013-5-9,56.3,48.4,38.2,53.1,43.2,28.4,93,83,61,30.13,29.94,27,9,32,0.08
2013-5-10,68.9,49.9,29.8,33.3,26.7,20.1,82,47,18,30.14,29.84,17,4,17,0.00
2013-5-11,54.7,44.1,35.6,39.2,25.7,18.7,70,49,34,30.16,29.84,37,13,37,0.00
2013-5-12,57.8,42.6,26.6,24.0,18.8,11.7,75,43,19,30.21,30.09,26,7,29,0.00
2013-5-13,66.0,51.3,27.8,41.6,28.6,16.3,71,43,24,30.11,29.62,32,13,32,0.01
2013-5-14,93.6,68.6,41.5,51.2,43.1,32.0,88,47,14,29.73,29.41,30,10,33,0.00
2013-5-15,84.5,66.7,47.3,46.5,41.6,34.6,80,44,19,29.86,29.60,29,6,29,0.00
2013-5-16,83.2,67.3,46.5,45.6,37.1,24.3,83,40,17,29.90,29.77,20,6,23,0.00
2013-5-17,67.9,61.2,55.4,53.8,44.6,21.9,84,58,19,29.99,29.88,24,9,27,0.00
2013-5-18,77.2,63.1,52.6,66.3,57.1,48.9,96,82,64,29.99,29.76,26,9,26,0.48
2013-5-19,83.2,69.3,61.2,66.3,61.8,59.4,98,78,50,29.77,29.57,42,10,52,0.68
2013-5-20,72.5,62.8,53.9,63.0,58.7,52.5,100,87,63,29.58,29.49,28,9,31,0.36
2013-5-21,53.8,48.5,43.6,52.4,47.2,42.0,99,95,88,29.74,29.53,17,6,19,0.52
2013-5-22,51.7,46.9,42.9,47.1,43.9,41.3,95,89,79,30.02,29.71,22,7,24,0.09
2013-5-23,64.3,51.2,39.9,41.6,32.1,23.0,95,53,23,30.34,30.02,24,7,24,0.00
2013-5-24,68.3,52.6,30.7,46.0,35.2,28.7,94,57,27,30.40,30.20,21,7,24,0.01
2013-5-25,65.2,57.4,52.2,49.7,47.5,43.8,90,70,55,30.25,30.21,25,9,30,0.03
2013-5-26,69.9,58.1,48.9,45.8,39.7,32.6,75,52,29,30.25,30.05,28,7,29,0.00
2013-5-27,61.0,57.5,55.1,53.5,47.9,42.1,83,71,59,30.05,29.83,20,6,24,0.02
2013-5-28,60.4,56.3,52.9,56.4,52.4,49.1,95,87,77,29.84,29.70,13,4,17,0.01
2013-5-29,81.2,65.7,56.0,67.0,59.2,54.7,96,81,51,29.82,29.63,24,7,28,0.03
2013-5-30,78.8,68.7,63.1,65.8,62.4,60.2,96,81,57,29.66,29.50,30,15,33,0.50
2013-5-31,78.6,65.3,59.0,64.7,59.0,54.7,95,82,48,29.54,29.47,34,14,36,0.57
2013-6-1,70.8,58.0,49.1,61.2,52.8,41.2,93,83,67,29.92,29.52,27,7,29,0.02
2013-6-2,68.4,54.9,45.1,44.4,40.2,34.9,85,60,32,30.06,29.91,19,5,20,0.01
2013-6-3,73.9,56.0,39.6,46.6,41.2,36.7,95,63,28,30.04,29.96,15,3,16,0.00
2013-6-4,63.9,57.2,51.7,51.4,45.6,37.2,96,66,46,30.12,29.99,26,8,27,0.54
2013-6-5,56.2,53.2,50.2,55.4,52.1,49.3,97,96,93,30.05,29.94,18,5,19,0.96
2013-6-6,56.3,51.1,47.4,51.7,49.6,46.9,99,95,82,30.04,29.97,15,4,15,0.01
2013-6-7,66.8,55.9,48.2,53.9,50.8,46.8,96,84,59,30.04,29.90,9,1,10,0.00
2013-6-8,69.8,57.2,52.0,55.9,52.6,51.1,98,86,56,29.91,29.89,14,2,17,0.00
2013-6-9,63.2,59.9,56.5,60.0,57.6,55.4,100,92,87,29.82,29.78,14,4,14,0.32
2013-6-10,73.2,61.7,52.6,63.5,58.3,52.3,100,90,67,29.83,29.79,10,1,12,0.00
2013-6-11,81.8,66.4,51.1,66.9,60.8,50.6,100,84,55,29.85,29.79,13,2,13,0.00
2013-6-12,76.1,64.9,56.3,66.9,58.7,49.2,95,81,57,29.91,29.75,17,4,19,0.03
2013-6-13,79.6,65.6,50.4,58.6,51.7,47.3,93,63,39,30.07,29.91,17,4,17,0.00
2013-6-14,78.3,66.2,51.4,60.2,55.3,48.0,92,69,50,30.07,29.85,24,9,28,0.00
2013-6-15,75.3,68.0,60.9,67.4,62.3,56.5,96,83,66,29.86,29.80,26,6,28,0.08
2013-6-16,87.0,70.4,54.1,59.3,51.5,43.8,96,58,23,29.86,29.77,28,7,33,0.00
2013-6-17,80.3,64.9,54.1,65.6,55.2,47.3,96,72,43,30.01,29.79,19,4,20,0.08
2013-6-18,76.8,60.7,45.4,56.4,49.9,42.5,93,70,43,30.09,30.01,12,3,15,0.00
2013-6-19,83.4,69.2,53.1,61.5,56.7,50.2,92,67,41,30.04,29.91,20,9,22,0.00
2013-6-20,84.5,74.3,66.0,69.6,63.6,58.2,85,70,56,29.97,29.87,27,12,28,0.00
2013-6-21,80.5,70.5,62.3,68.1,63.8,60.7,96,80,60,30.04,29.65,37,8,41,1.30
2013-6-22,79.6,69.6,64.3,69.4,66.0,62.4,99,89,65,29.96,29.82,21,4,28,0.20
2013-6-23,84.0,72.6,62.0,70.1,65.4,61.1,100,80,53,29.83,29.63,32,12,36,0.32
2013-6-24,84.3,72.3,59.3,70.6,64.8,58.5,99,79,54,29.87,29.76,18,6,19,0.00
2013-6-25,87.0,74.3,61.3,69.4,65.3,59.6,97,76,50,29.80,29.67,19,7,19,0.00
2013-6-26,87.2,76.9,68.9,76.8,70.2,64.6,96,81,58,29.75,29.61,20,7,21,0.09
2013-6-27,87.0,75.0,62.7,67.0,61.6,54.1,93,67,37,29.75,29.72,28,6,28,0.00
2013-6-28,78.5,66.6,59.9,66.6,61.3,56.3,98,83,58,29.76,29.69,27,6,32,0.18
2013-6-29,75.6,65.8,56.0,63.8,57.4,48.5,99,77,40,29.97,29.72,23,6,25,0.47
2013-6-30,84.0,66.4,50.4,60.4,53.2,47.9,96,68,31,30.08,29.97,18,3,19,0.00
2013-7-1,84.5,68.6,53.9,64.0,56.4,50.9,97,69,35,30.16,30.08,16,3,16,0.00
2013-7-2,85.5,67.4,50.5,57.6,52.4,47.4,93,63,33,30.15,30.03,17,3,17,0.00
2013-7-3,87.2,67.9,50.8,60.1,51.7,45.2,96,64,25,30.05,29.92,16,2,16,0.00
2013-7-4,87.8,74.2,60.4,64.0,58.2,52.7,82,60,34,29.92,29.81,23,12,25,0.00
2013-7-5,88.4,77.9,67.1,64.2,60.6,57.7,72,56,41,29.86,29.75,32,16,32,0.00
2013-7-6,84.9,77.7,71.8,70.6,64.3,59.4,74,64,50,29.83,29.75,22,12,25,0.00
2013-7-7,92.1,79.6,66.3,73.2,68.4,64.2,97,70,51,29.87,29.76,19,7,20,0.12
2013-7-8,82.8,66.3,56.0,70.0,62.6,55.7,99,89,62,30.00,29.85,14,4,14,0.00
2013-7-9,84.3,71.8,64.2,72.4,67.4,63.6,99,87,65,29.94,29.74,33,7,34,0.74
2013-7-11,83.8,75.2,54.8,63.5,59.0,54.0,97,60,39,30.08,29.94,20,8,21,0.00
2013-7-12,86.3,76.0,66.8,64.8,60.6,57.3,73,60,42,29.99,29.85,29,16,33,0.00
2013-7-13,77.4,70.8,65.2,68.8,63.6,57.0,93,79,56,30.04,29.86,32,11,32,0.04
2013-7-14,86.5,74.2,68.9,69.9,64.5,60.0,87,73,46,30.15,30.03,21,9,21,0.01
2013-7-15,88.8,77.5,65.3,69.6,65.6,62.7,93,69,45,30.20,30.12,20,8,20,0.00
2013-7-16,95.1,81.5,73.5,73.1,69.9,67.0,89,70,42,30.15,30.11,20,9,22,0.00
2013-7-17,96.1,82.7,71.3,71.8,68.7,65.8,89,65,39,30.19,30.05,20,8,23,0.00
2013-7-18,96.8,85.2,74.6,72.1,69.8,65.8,85,62,39,30.05,29.66,29,13,33,0.00
2013-7-19,86.1,77.8,67.3,71.8,64.1,56.8,89,64,39,29.83,29.62,27,9,28,0.04
2013-7-20,79.0,68.4,60.4,62.4,57.3,51.0,96,70,39,29.95,29.81,14,4,19,0.01
2013-7-21,73.3,61.7,53.2,64.0,53.4,46.1,86,75,58,29.95,29.77,18,5,19,0.00
2013-7-22,88.8,72.6,63.2,70.8,62.8,54.6,96,73,45,29.79,29.61,28,11,30,0.00
2013-7-23,79.8,65.3,55.3,54.4,51.5,48.3,90,64,36,30.00,29.80,17,6,19,0.00
2013-7-24,79.8,63.1,50.8,59.1,54.2,48.5,94,75,45,30.06,29.93,16,4,16,0.00
2013-7-25,83.6,70.1,59.8,64.0,60.2,56.6,95,73,43,29.94,29.86,21,6,22,0.35
2013-7-26,66.8,59.0,48.0,62.2,55.2,44.6,99,88,72,30.07,29.85,28,7,31,0.33
2013-7-27,56.5,52.2,47.6,53.7,48.7,44.6,94,88,71,30.07,29.91,24,5,28,0.14
2013-7-28,73.3,58.1,48.6,56.0,50.7,46.1,95,78,52,30.04,29.94,16,4,18,0.00
2013-7-29,79.9,62.9,47.0,60.0,53.5,46.0,99,75,38,30.11,30.03,17,4,19,0.01
2013-7-30,69.8,64.1,59.8,64.2,60.8,57.8,97,89,78,30.09,30.02,15,4,16,0.15
2013-7-31,81.1,66.9,56.2,65.4,58.0,49.0,100,77,37,30.03,29.93,21,4,24,0.00
2013-8-1,81.4,66.0,51.4,59.4,54.3,49.5,94,69,39,29.99,29.83,18,4,18,0.00
2013-8-2,77.2,64.8,53.2,57.7,54.0,48.9,96,71,39,30.01,29.81,19,4,21,0.00
2013-8-3,79.4,62.7,48.2,57.5,50.1,38.7,96,68,27,30.18,30.00,18,3,20,0.00
2013-8-4,78.8,62.4,47.0,56.6,51.2,45.4,96,70,38,30.22,29.98,16,5,17,0.00
2013-8-5,79.4,66.8,59.0,65.9,61.5,54.1,98,84,60,29.98,29.74,27,7,33,0.09
2013-8-6,77.6,63.9,53.9,67.9,59.5,52.8,98,86,61,29.79,29.64,25,4,25,0.78
2013-8-7,78.1,64.4,53.8,59.5,55.6,48.7,100,77,36,30.00,29.73,17,4,18,0.00
2013-8-8,78.8,63.2,49.4,60.4,54.6,48.0,98,77,44,30.01,29.95,18,3,19,0.00
2013-8-9,75.3,63.5,51.1,59.2,54.2,48.8,100,75,41,30.09,29.95,21,4,22,0.00
2013-8-10,77.0,64.7,54.4,58.7,54.7,48.8,92,72,42,30.15,30.07,12,2,12,0.00
2013-8-11,82.4,65.8,51.9,61.4,56.0,50.6,96,74,39,30.08,29.96,13,2,13,0.00
2013-8-12,80.7,66.2,55.3,60.3,56.8,52.2,98,74,41,30.06,29.96,26,4,28,0.00
2013-8-13,76.7,61.2,48.5,56.2,50.4,44.0,99,72,34,30.17,30.06,14,3,14,0.00
2013-8-14,80.7,62.7,47.9,56.3,50.2,44.5,96,68,30,30.18,30.07,14,4,16,0.00
2013-8-15,80.7,65.5,52.3,60.6,54.9,49.5,95,71,40,30.11,30.03,16,4,16,0.00
2013-8-16,84.9,67.1,51.4,61.5,55.6,49.7,96,70,37,30.15,30.09,16,5,19,0.00
2013-8-17,84.0,68.4,52.6,58.7,53.9,50.3,95,64,33,30.17,30.07,24,10,29,0.00
2013-8-18,84.5,70.5,54.8,60.0,56.0,51.9,92,63,38,30.11,29.96,28,10,30,0.00
2013-8-19,86.7,74.2,65.8,67.0,63.0,58.1,79,69,49,29.97,29.85,20,10,21,0.00
2013-8-20,92.3,78.5,67.9,71.7,67.8,62.7,86,71,48,29.87,29.80,23,11,23,0.00
2013-8-21,88.4,76.5,64.8,74.9,68.2,58.8,92,76,49,29.97,29.78,18,7,19,0.00
2013-8-22,89.3,70.9,57.0,60.2,51.6,45.2,93,57,24,30.10,29.97,16,5,17,0.00
2013-8-23,88.6,69.2,48.3,64.3,55.0,46.4,93,66,32,30.14,30.00,18,6,18,0.00
2013-8-24,90.1,78.4,68.6,71.0,66.4,61.0,84,68,49,30.04,29.87,32,18,37,0.00
2013-8-25,97.8,85.2,76.1,73.0,70.7,67.9,79,63,43,29.95,29.85,26,13,29,0.00
2013-8-26,92.7,84.1,78.1,74.4,73.5,72.1,83,71,52,29.81,29.75,12,5,15,0.00
2013-8-27,91.8,80.4,70.3,75.0,72.6,68.3,95,78,55,29.88,29.72,15,4,16,0.00
2013-8-28,92.9,75.4,64.7,72.2,65.2,59.9,99,75,35,29.98,29.88,14,2,15,0.00
2013-8-29,95.6,79.9,67.4,73.9,69.4,64.5,95,73,44,29.97,29.76,25,9,33,0.00
2013-8-30,87.2,75.0,67.1,68.8,64.1,58.3,93,71,43,29.89,29.76,17,7,29,0.00
2013-8-31,89.3,72.2,57.2,66.4,62.0,55.8,99,73,42,29.87,29.67,24,6,28,0.02
2013-9-1,73.5,66.4,59.2,61.6,58.5,51.7,94,76,61,29.95,29.69,20,7,21,0.00
2013-9-2,69.9,54.9,47.3,51.8,49.1,44.0,91,81,49,30.06,29.95,13,4,17,0.00
2013-9-3,80.1,60.0,40.3,56.1,49.8,38.4,99,73,38,30.08,29.95,16,5,20,0.00
2013-9-4,81.2,67.1,56.6,63.5,58.1,53.5,94,75,45,30.14,29.98,14,4,15,0.00
2013-9-5,83.4,66.2,47.9,59.0,53.0,44.7,95,67,31,30.22,30.07,18,6,20,0.00
2013-9-6,92.5,77.9,66.6,67.7,63.2,56.7,92,64,31,30.07,29.81,26,12,27,0.00
2013-9-7,77.6,70.4,65.3,64.6,63.2,61.6,89,79,64,29.86,29.80,14,3,16,0.00
2013-9-8,66.3,61.7,58.9,60.4,57.7,52.7,98,88,66,30.03,29.87,16,5,18,0.50
2013-9-9,88.6,71.9,60.7,74.2,68.1,59.8,99,89,60,29.87,29.58,27,7,30,0.02
2013-9-10,84.1,71.5,64.5,70.5,65.0,58.6,98,82,47,29.94,29.69,18,5,21,0.03
2013-9-11,83.0,69.2,59.3,62.4,56.6,46.6,94,68,29,30.01,29.93,27,6,27,0.00
2013-9-12,71.8,58.7,48.2,54.7,49.3,44.2,98,74,42,30.23,30.00,25,6,25,0.00
2013-9-13,71.8,53.1,37.5,49.7,42.9,36.2,99,73,36,30.28,30.07,11,2,12,0.00
2013-9-14,71.6,57.1,47.6,56.6,48.4,42.4,98,75,41,30.07,29.90,22,8,22,0.85
2013-9-15,61.3,54.9,42.8,57.6,52.3,41.0,99,91,68,30.33,29.88,18,5,21,0.20
2013-9-16,66.6,49.1,32.8,46.4,38.6,31.8,99,72,34,30.43,30.25,15,5,16,0.01
2013-9-17,70.8,56.6,46.7,55.5,47.9,40.5,94,74,51,30.25,29.93,29,14,29,0.00
2013-9-18,70.4,62.6,57.2,66.5,61.0,55.8,100,95,84,29.93,29.70,21,12,23,0.00
2013-9-19,74.6,68.8,62.0,68.8,64.2,60.3,95,86,74,29.74,29.64,14,4,21,1.28
2013-9-20,63.9,56.9,47.9,60.7,53.0,46.3,96,87,56,29.90,29.72,20,5,21,0.22
2013-9-21,64.2,51.8,44.1,47.7,45.2,41.2,96,80,49,29.98,29.89,17,2,17,0.00
2013-9-22,68.6,54.8,38.9,51.1,46.1,37.8,99,74,51,30.00,29.86,25,10,26,0.00
2013-9-23,72.5,60.9,51.4,53.5,49.5,45.9,83,67,43,29.95,29.87,30,14,31,0.00
2013-9-24,74.7,60.4,50.4,54.2,50.2,47.3,91,72,41,29.97,29.90,19,8,21,0.00
2013-9-25,73.3,58.9,45.2,54.0,49.7,43.9,100,74,46,29.97,29.87,19,6,20,0.00
2013-9-26,78.5,65.9,55.1,60.8,54.4,48.0,82,67,49,29.93,29.82,33,14,33,0.00
2013-9-27,81.4,71.0,62.9,61.8,58.6,54.3,76,66,50,29.90,29.77,34,18,38,0.00
2013-9-28,68.8,56.9,47.3,62.1,52.2,44.3,96,85,69,29.91,29.58,31,11,36,0.25
2013-9-29,73.5,58.4,45.4,50.6,45.8,41.5,92,66,35,29.94,29.75,27,11,28,0.00
2013-9-30,77.0,65.9,58.1,53.1,49.1,44.7,66,55,41,29.75,29.57,30,17,32,0.00
2013-10-1,74.6,63.4,50.7,52.9,43.3,32.7,79,51,24,29.95,29.52,25,10,27,0.00
2013-10-2,75.3,56.0,38.9,52.5,41.8,33.0,96,66,22,30.04,29.86,25,8,25,0.34
2013-10-3,56.0,54.0,53.1,55.7,53.5,52.2,99,98,96,29.94,29.84,19,6,20,0.18
2013-10-4,53.6,53.5,53.2,52.7,51.5,50.7,98,93,91,30.01,29.86,19,8,19,0.00
2013-10-5,60.4,54.8,49.4,60.1,53.9,48.9,100,97,92,29.88,29.69,19,5,24,0.44
2013-10-6,52.2,48.5,41.3,51.7,47.9,40.8,100,98,92,29.82,29.65,18,3,21,0.06
2013-10-7,65.3,48.4,39.1,50.9,42.2,36.1,100,83,38,29.98,29.80,14,4,16,0.00
2013-10-8,75.3,61.5,48.6,49.2,44.2,41.0,76,55,33,29.96,29.77,33,17,40,0.00
2013-10-9,75.1,63.9,56.2,52.4,49.0,45.2,73,59,39,30.02,29.88,25,14,25,0.00
2013-10-10,76.0,62.9,53.8,52.3,47.8,43.9,73,59,37,30.02,29.87,28,14,31,0.01
2013-10-11,75.1,65.7,56.3,58.1,51.8,48.9,79,62,46,29.87,29.60,39,18,42,0.00
2013-10-12,64.7,54.0,49.4,58.0,46.2,41.7,84,75,62,29.82,29.63,26,14,29,0.00
2013-10-13,59.3,48.7,37.9,37.2,34.9,31.8,89,62,38,30.40,30.36,15,3,16,0.00
2013-10-14,54.8,45.4,33.4,45.5,36.6,31.6,96,73,48,30.42,30.01,21,5,22,0.13
2013-10-15,50.8,48.0,44.3,50.5,47.3,43.8,99,97,93,30.01,29.65,29,8,30,1.12
2013-10-16,54.4,44.3,35.8,43.8,39.3,33.5,98,84,51,29.94,29.81,22,6,22,0.00
2013-10-17,55.3,44.5,35.0,45.2,40.0,33.1,96,85,56,29.88,29.75,21,4,21,0.04
2013-10-18,50.8,42.0,38.0,41.0,36.0,27.1,98,81,44,29.95,29.81,20,5,20,0.14
2013-10-19,48.5,38.7,31.5,38.2,34.6,29.5,95,86,52,29.82,29.68,15,4,18,0.06
2013-10-20,35.3,32.7,29.3,34.5,31.6,27.9,98,96,93,29.86,29.66,15,3,16,0.24
2013-10-21,37.6,33.7,30.0,33.6,24.5,19.4,97,70,53,29.95,29.86,24,7,27,0.00
2013-10-22,40.1,32.7,25.4,30.7,26.8,22.9,91,79,59,30.05,29.95,11,2,12,0.00
2013-10-23,36.5,32.6,30.3,29.8,26.2,21.0,91,78,60,30.11,29.99,17,2,18,0.01
2013-10-24,41.5,35.9,31.5,30.0,26.6,22.6,77,69,55,30.30,30.11,20,3,21,0.00
2013-10-25,53.1,42.2,29.5,42.2,32.9,27.0,92,70,55,30.31,29.74,31,9,33,0.00
2013-10-26,49.1,42.0,37.6,39.4,30.3,26.8,71,63,52,30.08,29.74,25,7,25,0.00
2013-10-27,53.5,38.8,30.1,34.0,28.5,25.9,86,68,44,30.18,29.81,22,8,25,0.00
2013-10-28,41.3,34.0,27.3,28.7,21.8,15.1,84,63,35,30.48,30.18,20,5,23,0.00
2013-10-29,37.3,33.4,26.1,33.3,27.1,21.5,89,78,62,30.46,30.13,14,4,16,0.00
2013-10-30,48.2,42.4,36.2,47.9,41.5,33.3,99,97,89,30.13,29.67,11,2,14,0.06
2013-10-31,48.2,43.3,39.2,47.9,43.0,38.6,100,99,98,29.67,29.37,13,3,15,0.21
2013-11-1,46.7,40.4,35.3,39.9,36.3,30.6,99,86,65,29.83,29.38,18,4,19,0.01
2013-11-2,47.1,37.6,28.5,34.2,29.4,25.7,91,73,49,30.11,29.83,15,3,16,0.00
2013-11-3,52.0,42.7,29.0,35.0,30.8,26.7,92,64,48,30.12,29.91,37,16,40,0.00
2013-11-4,47.1,43.1,32.9,43.6,36.1,31.0,94,77,58,30.14,29.81,34,14,35,0.15
2013-11-5,43.1,34.2,27.3,32.5,29.7,25.5,96,85,56,30.25,30.05,12,3,15,0.38
2013-11-6,38.0,31.2,27.8,31.1,28.0,24.6,97,88,63,30.17,30.04,15,3,17,0.04
2013-11-7,38.2,28.5,21.6,27.9,24.5,19.6,94,86,56,30.24,30.17,16,4,16,0.00
2013-11-8,40.2,32.5,20.8,36.8,26.6,18.9,94,80,59,30.21,29.59,31,11,33,0.09
2013-11-9,41.2,38.8,36.6,37.9,32.0,25.3,95,77,60,30.17,29.59,30,10,30,0.01
2013-11-10,41.2,36.5,28.2,29.8,27.3,22.8,82,69,57,30.32,30.09,21,6,23,0.00
2013-11-11,35.3,22.1,12.6,29.5,10.0,5.3,81,60,44,30.77,30.12,25,8,29,0.00
2013-11-12,28.1,18.1,8.6,12.6,7.2,4.0,83,64,37,30.82,30.46,20,5,20,0.00
2013-11-13,47.9,33.7,19.9,32.2,22.4,12.3,78,64,44,30.46,29.85,29,13,31,0.00
2013-11-14,47.7,38.2,32.5,34.6,31.5,29.1,92,77,59,29.85,29.74,16,7,16,0.00
2013-11-15,53.3,40.1,29.3,38.2,33.6,28.0,96,79,54,29.85,29.63,24,10,24,0.00
2013-11-16,45.5,43.4,40.1,45.2,40.1,33.0,99,89,74,29.63,29.25,26,10,27,0.12
2013-11-17,44.5,38.8,29.7,44.2,35.2,21.9,100,87,72,29.78,29.28,28,10,31,0.00
2013-11-18,29.5,25.3,16.1,22.2,18.1,13.2,89,74,65,30.30,29.78,31,7,31,0.00
2013-11-19,42.3,30.6,14.6,27.5,20.8,11.7,90,69,52,30.32,29.93,34,14,35,0.00
2013-11-20,43.5,40.1,34.9,32.5,27.4,21.8,91,62,46,30.05,29.89,28,15,29,0.00
2013-11-21,36.0,30.2,22.9,35.5,24.6,11.8,98,80,60,30.55,30.05,23,7,24,0.00
2013-11-22,32.1,21.1,10.5,15.4,8.3,-1.6,86,60,26,30.67,30.45,27,8,29,0.00
2013-11-23,17.3,9.4,2.2,1.0,-1.1,-4.7,74,63,46,30.88,30.67,19,5,23,0.00
2013-11-24,28.2,13.0,1.3,10.6,2.9,-5.1,78,65,45,30.76,30.20,35,12,35,0.00
2013-11-25,33.8,30.7,28.1,20.5,17.0,14.1,58,56,55,30.07,30.02,23,11,26,0.01
2013-11-26,28.1,18.0,7.2,17.3,5.9,0.4,76,59,45,30.43,30.07,30,10,30,0.00
2013-11-27,22.4,14.2,1.5,11.1,5.0,-3.2,83,68,52,30.43,30.11,15,5,18,0.00
2013-11-28,25.8,19.8,6.5,13.4,9.1,2.2,82,63,52,30.55,30.10,18,4,22,0.00
2013-11-29,29.8,19.5,2.4,19.2,10.7,-2.3,86,69,54,30.57,30.15,32,10,37,0.00
2013-11-30,37.5,28.9,21.6,25.0,21.5,18.0,89,74,59,30.19,30.03,22,4,23,0.00
2013-12-1,32.7,21.9,11.6,24.3,17.9,8.2,91,85,69,30.22,29.96,9,1,9,0.00
2013-12-2,34.4,30.2,21.0,31.8,27.5,18.3,95,89,82,29.97,29.64,23,8,24,0.08
2013-12-3,33.5,32.5,29.0,32.7,30.9,25.4,97,94,86,29.84,29.62,19,7,20,0.19
2013-12-4,29.0,26.6,18.4,27.3,24.1,13.2,95,90,79,29.83,29.44,28,6,28,0.28
2013-12-5,18.4,4.8,-6.5,13.2,-2.8,-13.6,80,70,61,30.39,29.64,24,11,26,0.12
2013-12-6,2.6,-6.0,-12.0,-7.8,-13.3,-18.9,76,70,59,30.71,30.39,16,6,17,0.00
2013-12-7,-0.6,-11.0,-19.3,-12.2,-18.7,-26.3,75,68,55,30.80,30.67,18,6,18,0.00
2013-12-8,9.3,0.0,-16.4,3.0,-5.7,-23.3,82,76,67,30.67,30.09,12,2,14,0.00
2013-12-9,4.7,-2.6,-8.4,0.4,-9.8,-16.1,82,71,56,30.16,29.97,24,8,25,0.00
2013-12-10,6.1,0.1,-7.2,-2.5,-6.8,-13.3,79,72,58,30.35,29.85,20,7,22,0.00
2013-12-11,-0.2,-7.0,-15.8,-8.9,-15.4,-23.0,77,66,52,30.63,30.27,15,7,19,0.00
2013-12-12,14.9,5.4,-7.5,8.0,-1.7,-13.3,78,72,59,30.27,30.08,12,2,12,0.00
2013-12-13,12.9,10.0,7.7,6.2,3.4,0.2,80,74,69,30.26,30.09,12,4,15,0.00
2013-12-14,14.3,8.0,-1.2,6.5,1.9,-7.9,81,76,69,30.26,29.99,15,2,19,0.00
2013-12-15,-1.0,-5.9,-14.3,-7.9,-15.0,-21.8,74,64,50,30.14,30.02,14,4,16,0.00
2013-12-16,16.7,5.1,-8.9,13.0,-1.0,-16.6,87,75,62,30.11,29.78,24,7,24,0.00
2013-12-17,29.3,19.7,1.3,25.0,12.5,-4.5,89,74,55,30.02,29.73,29,7,29,0.00
2013-12-18,29.0,17.1,-0.8,18.7,10.7,-6.3,90,76,63,30.00,29.55,28,7,28,0.00
2013-12-19,15.9,14.7,11.6,12.7,8.6,4.3,90,77,65,30.03,29.71,20,6,20,0.00
2013-12-20,20.5,12.2,4.3,12.4,7.2,0.0,85,80,68,29.98,29.78,10,2,10,0.00
2013-12-21,21.9,15.4,8.6,14.6,10.4,5.3,87,80,72,29.94,29.77,9,1,10,0.00
2013-12-22,20.8,15.7,9.0,15.6,11.4,4.4,88,83,76,30.13,29.87,13,4,15,0.00
2013-12-23,9.0,0.5,-12.8,4.6,-5.6,-19.2,82,75,68,30.45,30.13,21,4,21,0.00
2013-12-24,8.6,-2.2,-18.1,3.7,-8.8,-25.4,81,73,62,30.45,30.07,21,9,31,0.01
2013-12-25,20.6,13.1,7.7,15.4,8.3,2.0,84,81,74,30.07,29.96,14,5,16,0.00
2013-12-26,20.5,15.2,7.9,14.5,10.2,3.2,87,80,73,30.09,30.00,11,1,13,0.00
2013-12-27,38.3,25.0,7.6,28.9,20.9,3.8,95,85,67,30.08,29.75,24,8,29,0.03
2013-12-28,39.2,27.6,16.2,32.0,24.9,11.4,98,90,69,29.93,29.57,26,6,30,0.10
2013-12-29,16.2,-2.9,-16.4,11.1,-13.2,-25.2,81,61,44,30.27,29.93,24,9,28,0.00
2013-12-30,-1.6,-8.8,-24.9,-9.5,-16.0,-33.1,75,70,64,30.26,30.16,8,1,9,0.00
2013-12-31,-4.8,-11.8,-18.4,-11.8,-19.4,-26.0,75,68,56,30.41,30.14,10,2,10,0.00
2014-1-1,-0.8,-6.4,-16.9,-11.1,-15.8,-24.3,69,63,56,30.49,30.39,7,1,9,0.00
2014-1-2,0.3,-12.0,-22.3,-14.5,-22.5,-30.6,70,59,39,30.47,30.33,7,1,8,0.00